Location: St. Louis
(38.6270°N, 90.1994°W)
Time: 02:55:10
(UTC-06:00)

Transit 2A - Pass Details

Date: 01 December 2021
Orbit: 591 x 966 km, 66.7° (Epoch: 24 January)

Event Time Altitude Azimuth Distance (km) Brightness Sun altitude
Rises 02:45:41 0° 274° (W) 3,386 - -49.0°
Reaches altitude 10° 02:50:19 10° 309° (NW) 2,552 - -48.1°
Maximum altitude 02:52:01 11° 325° (NW) 2,500 - -47.8°
Drops below altitude 10° 02:53:44 10° 342° (NNW) 2,613 - -47.4°
Exits shadow 02:58:43 - 16° (NNE) 3,625 9.7 -46.5°
Sets 02:58:43 0° 16° (NNE) 3,625 - -46.5°
